Time,TemperatureF,DewpointF,PressureIn,WindDirection,WindDirectionDegrees,WindSpeedMPH,WindSpeedGustMPH,Humidity,HourlyPrecipIn,Conditions,Clouds,dailyrainin,SolarRadiationWatts/m^2,SoftwareType,DateUTC
2013-03-30 00:02:00,52.0,48.0,-100.00,WSW,248,0.0,5.0,85,0.00,,,0.00,0.000000,,2013-03-30 07:02:00,
2013-03-30 01:32:00,51.0,42.0,-100.00,WSW,245,0.0,0.0,70,-99.99,,,0.00,0.000000,,2013-03-30 08:32:00,
2013-03-30 01:42:00,51.0,42.0,-100.00,WSW,245,0.0,0.0,70,-99.99,,,0.00,0.000000,,2013-03-30 08:42:00,
2013-03-30 01:53:00,51.0,42.0,-100.00,WSW,245,0.0,0.0,70,-99.99,,,0.00,0.000000,,2013-03-30 08:53:00,
2013-03-30 02:02:00,51.0,42.0,-100.00,WSW,245,0.0,0.0,70,-99.99,,,0.00,0.000000,,2013-03-30 09:02:00,
2013-03-30 02:11:00,51.0,42.0,-100.00,WSW,245,0.0,0.0,70,-99.99,,,0.00,0.000000,,2013-03-30 09:11:00,
2013-03-30 03:12:00,49.0,37.0,-100.00,SW,233,0.0,0.0,64,-99.99,,,0.00,0.000000,,2013-03-30 10:12:00,
2013-03-30 03:33:00,49.0,37.0,-100.00,SW,233,0.0,0.0,64,-99.99,,,0.00,0.000000,,2013-03-30 10:33:00,
2013-03-30 03:42:00,49.0,37.0,-100.00,SW,233,0.0,0.0,64,-99.99,,,0.00,0.000000,,2013-03-30 10:42:00,
2013-03-30 03:52:00,49.0,37.0,-100.00,SW,233,0.0,0.0,64,-99.99,,,0.00,0.000000,,2013-03-30 10:52:00,
2013-03-30 04:03:00,49.0,37.0,-100.00,SW,233,0.0,0.0,64,-99.99,,,0.00,0.000000,,2013-03-30 11:03:00,
2013-03-30 04:12:00,48.0,35.0,-100.00,SW,226,0.0,4.0,61,0.00,,,0.00,0.000000,,2013-03-30 11:12:00,
2013-03-30 04:33:00,48.0,35.0,-100.00,SW,226,0.0,4.0,61,0.00,,,0.00,0.000000,,2013-03-30 11:33:00,
2013-03-30 04:43:00,48.0,35.0,-100.00,SW,226,0.0,4.0,61,0.00,,,0.00,0.000000,,2013-03-30 11:43:00,
2013-03-30 04:53:00,48.0,35.0,-100.00,SW,226,0.0,4.0,61,0.00,,,0.00,0.000000,,2013-03-30 11:53:00,
2013-03-30 05:02:00,48.0,35.0,-100.00,SW,226,0.0,4.0,61,0.00,,,0.00,0.000000,,2013-03-30 12:02:00,
2013-03-30 05:12:00,48.0,37.0,-100.00,SE,132,0.0,4.0,66,0.00,,,0.00,0.000000,,2013-03-30 12:12:00,
2013-03-30 05:33:00,48.0,37.0,-100.00,SE,132,0.0,4.0,66,0.00,,,0.00,0.000000,,2013-03-30 12:33:00,
2013-03-30 05:42:00,48.0,37.0,-100.00,SE,132,0.0,4.0,66,0.00,,,0.00,0.000000,,2013-03-30 12:42:00,
2013-03-30 05:53:00,48.0,37.0,-100.00,SE,132,0.0,4.0,66,0.00,,,0.00,0.000000,,2013-03-30 12:53:00,
2013-03-30 06:02:00,48.0,37.0,-100.00,SE,132,0.0,4.0,66,0.00,,,0.00,0.000000,,2013-03-30 13:02:00,
2013-03-30 06:43:00,49.0,37.0,-100.00,NE,35,5.0,0.0,62,0.00,,,0.00,0.000000,,2013-03-30 13:43:00,
2013-03-30 06:52:00,49.0,37.0,-100.00,NE,35,5.0,0.0,62,0.00,,,0.00,0.000000,,2013-03-30 13:52:00,
2013-03-30 07:02:00,49.0,37.0,-100.00,NE,35,5.0,0.0,62,0.00,,,0.00,0.000000,,2013-03-30 14:02:00,
2013-03-30 07:11:00,49.0,37.0,-100.00,NE,35,5.0,0.0,62,0.00,,,0.00,0.000000,,2013-03-30 14:11:00,
2013-03-30 07:12:00,46.0,37.0,-100.00,South,187,0.0,9.0,70,0.00,,,0.00,4.000000,,2013-03-30 14:12:00,
2013-03-30 07:42:00,46.0,37.0,-100.00,South,187,0.0,9.0,70,0.00,,,0.00,4.000000,,2013-03-30 14:42:00,
2013-03-30 07:52:00,46.0,37.0,-100.00,South,187,0.0,9.0,70,0.00,,,0.00,4.000000,,2013-03-30 14:52:00,
2013-03-30 08:02:00,46.0,37.0,-100.00,South,187,0.0,9.0,70,0.00,,,0.00,4.000000,,2013-03-30 15:02:00,
2013-03-30 08:12:00,50.0,37.0,-100.00,SSW,202,0.0,8.0,60,0.00,,,0.00,137.000000,,2013-03-30 15:12:00,
2013-03-30 08:43:00,50.0,37.0,-100.00,SSW,202,0.0,8.0,60,0.00,,,0.00,137.000000,,2013-03-30 15:43:00,
2013-03-30 08:53:00,50.0,37.0,-100.00,SSW,202,0.0,8.0,60,0.00,,,0.00,137.000000,,2013-03-30 15:53:00,
2013-03-30 09:03:00,50.0,37.0,-100.00,SSW,202,0.0,8.0,60,0.00,,,0.00,137.000000,,2013-03-30 16:03:00,
2013-03-30 09:12:00,60.0,42.0,-100.00,NE,49,0.0,0.0,51,0.00,,,0.00,488.000000,,2013-03-30 16:12:00,
2013-03-30 09:33:00,60.0,42.0,-100.00,NE,49,0.0,0.0,51,0.00,,,0.00,488.000000,,2013-03-30 16:33:00,
2013-03-30 09:43:00,60.0,42.0,-100.00,NE,49,0.0,0.0,51,0.00,,,0.00,488.000000,,2013-03-30 16:43:00,
2013-03-30 09:52:00,60.0,42.0,-100.00,NE,49,0.0,0.0,51,0.00,,,0.00,488.000000,,2013-03-30 16:52:00,
2013-03-30 10:02:00,60.0,42.0,-100.00,NE,49,0.0,0.0,51,0.00,,,0.00,488.000000,,2013-03-30 17:02:00,
2013-03-30 10:12:00,68.0,46.0,-100.00,NE,42,1.0,4.0,45,0.00,,,0.00,734.000000,,2013-03-30 17:12:00,
2013-03-30 10:42:00,68.0,46.0,-100.00,NE,42,1.0,4.0,45,0.00,,,0.00,734.000000,,2013-03-30 17:42:00,
2013-03-30 10:52:00,68.0,46.0,-100.00,NE,42,1.0,4.0,45,0.00,,,0.00,734.000000,,2013-03-30 17:52:00,
2013-03-30 11:33:00,70.0,39.0,-100.00,West,271,7.0,7.0,32,0.00,,,0.00,935.000000,,2013-03-30 18:33:00,
2013-03-30 13:12:00,70.0,39.0,-100.00,WNW,286,7.0,14.0,32,-99.99,,,0.00,1129.000000,,2013-03-30 20:12:00,
2013-03-30 13:43:00,70.0,39.0,-100.00,WNW,286,7.0,14.0,32,-99.99,,,0.00,1129.000000,,2013-03-30 20:43:00,
2013-03-30 13:53:00,70.0,39.0,-100.00,WNW,286,7.0,14.0,32,-99.99,,,0.00,1129.000000,,2013-03-30 20:53:00,
2013-03-30 14:02:00,70.0,39.0,-100.00,WNW,286,7.0,14.0,32,-99.99,,,0.00,1129.000000,,2013-03-30 21:02:00,
2013-03-30 14:12:00,70.0,43.0,-100.00,West,259,6.0,14.0,37,0.00,,,0.00,1097.000000,,2013-03-30 21:12:00,
2013-03-30 14:43:00,70.0,43.0,-100.00,West,259,6.0,14.0,37,0.00,,,0.00,1097.000000,,2013-03-30 21:43:00,
2013-03-30 14:53:00,70.0,43.0,-100.00,West,259,6.0,14.0,37,0.00,,,0.00,1097.000000,,2013-03-30 21:53:00,
2013-03-30 15:02:00,70.0,43.0,-100.00,West,259,6.0,14.0,37,0.00,,,0.00,1097.000000,,2013-03-30 22:02:00,
2013-03-30 15:12:00,70.0,43.0,-100.00,WSW,250,8.0,14.0,38,0.00,,,0.00,993.000000,,2013-03-30 22:12:00,
2013-03-30 15:43:00,70.0,43.0,-100.00,WSW,250,8.0,14.0,38,0.00,,,0.00,993.000000,,2013-03-30 22:43:00,
2013-03-30 15:53:00,70.0,43.0,-100.00,WSW,250,8.0,14.0,38,0.00,,,0.00,993.000000,,2013-03-30 22:53:00,
2013-03-30 16:02:00,70.0,43.0,-100.00,WSW,250,8.0,14.0,38,0.00,,,0.00,993.000000,,2013-03-30 23:02:00,
2013-03-30 16:12:00,70.0,46.0,-100.00,WNW,282,4.0,19.0,42,0.00,,,0.00,830.000000,,2013-03-30 23:12:00,
2013-03-30 16:43:00,70.0,46.0,-100.00,WNW,282,4.0,19.0,42,0.00,,,0.00,830.000000,,2013-03-30 23:43:00,
2013-03-30 16:53:00,70.0,46.0,-100.00,WNW,282,4.0,19.0,42,0.00,,,0.00,830.000000,,2013-03-30 23:53:00,
2013-03-30 17:02:00,70.0,46.0,-100.00,WNW,282,4.0,19.0,42,0.00,,,0.00,830.000000,,2013-03-31 00:02:00,
2013-03-30 17:43:00,69.0,47.0,-100.00,West,276,6.0,15.0,46,0.00,,,-99.99,601.000000,,2013-03-31 00:43:00,
2013-03-30 17:52:00,69.0,47.0,-100.00,West,276,6.0,15.0,46,0.00,,,-99.99,601.000000,,2013-03-31 00:52:00,
2013-03-30 18:02:00,69.0,47.0,-100.00,West,276,6.0,15.0,46,0.00,,,-99.99,601.000000,,2013-03-31 01:02:00,
2013-03-30 18:11:00,69.0,47.0,-100.00,West,276,6.0,15.0,46,0.00,,,-99.99,601.000000,,2013-03-31 01:11:00,
2013-03-30 18:32:00,67.0,45.0,-100.00,West,265,4.0,12.0,45,0.00,,,0.00,338.000000,,2013-03-31 01:32:00,
2013-03-30 18:43:00,67.0,45.0,-100.00,West,265,4.0,12.0,45,0.00,,,0.00,338.000000,,2013-03-31 01:43:00,
2013-03-30 18:52:00,67.0,45.0,-100.00,West,265,4.0,12.0,45,0.00,,,0.00,338.000000,,2013-03-31 01:52:00,
2013-03-30 19:43:00,64.0,47.0,-100.00,WNW,288,1.0,11.0,55,-99.99,,,0.00,77.000000,,2013-03-31 02:43:00,
2013-03-30 19:52:00,64.0,47.0,-100.00,WNW,288,1.0,11.0,55,-99.99,,,0.00,77.000000,,2013-03-31 02:52:00,
2013-03-30 20:12:00,53.0,47.0,-100.00,WSW,246,0.0,10.0,81,-99.99,,,0.00,0.000000,,2013-03-31 03:12:00,
2013-03-30 20:43:00,53.0,47.0,-100.00,WSW,246,0.0,10.0,81,-99.99,,,0.00,0.000000,,2013-03-31 03:43:00,
2013-03-30 20:54:00,53.0,47.0,-100.00,WSW,246,0.0,10.0,81,-99.99,,,0.00,0.000000,,2013-03-31 03:54:00,
2013-03-30 21:02:00,53.0,-99.9,-100.00,WSW,246,0.0,10.0,81,-99.99,,,0.00,0.000000,,2013-03-31 04:02:00,
2013-03-30 21:12:00,51.0,48.0,-100.00,NE,34,0.0,5.0,88,0.00,,,0.00,0.000000,,2013-03-31 04:12:00,
2013-03-30 21:42:00,51.0,48.0,-100.00,NE,34,0.0,5.0,88,0.00,,,0.00,0.000000,,2013-03-31 04:42:00,
2013-03-30 21:52:00,51.0,48.0,-100.00,NE,34,0.0,5.0,88,0.00,,,0.00,0.000000,,2013-03-31 04:52:00,
2013-03-30 22:02:00,51.0,48.0,-100.00,NE,34,0.0,5.0,88,0.00,,,0.00,0.000000,,2013-03-31 05:02:00,
2013-03-30 22:42:00,46.0,44.0,-100.00,South,174,0.0,3.0,91,0.00,,,-99.99,0.000000,,2013-03-31 05:42:00,
2013-03-30 22:53:00,46.0,44.0,-100.00,South,174,0.0,3.0,91,0.00,,,-99.99,0.000000,,2013-03-31 05:53:00,
2013-03-30 23:01:00,46.0,44.0,-100.00,South,174,0.0,3.0,91,0.00,,,-99.99,0.000000,,2013-03-31 06:01:00,
2013-03-30 23:11:00,46.0,44.0,-100.00,South,174,0.0,3.0,91,0.00,,,-99.99,0.000000,,2013-03-31 06:11:00,
2013-03-30 23:12:00,45.0,43.0,-100.00,South,191,0.0,4.0,92,0.00,,,0.00,0.000000,,2013-03-31 06:12:00,
2013-03-30 23:42:00,45.0,43.0,-100.00,South,191,0.0,4.0,92,0.00,,,0.00,0.000000,,2013-03-31 06:42:00,
2013-03-30 23:52:00,45.0,43.0,-100.00,South,191,0.0,4.0,92,0.00,,,0.00,0.000000,,2013-03-31 06:52:00,